EW6651 Weather Reports


Display with metric or nautical units.
time (UTC)temp
F
wind
direction
speed
MPH
gust
MPH
rain 1hr
in
rain 24hr
in
rain mn
in
humidity
%
barometer
mb
20260507030042 53 314 0.0 2.0 0.02 0.15 0.15 95 1005.9
20260507024536 54 40 1.0 4.0 0.02 0.15 0.15 96 1006.2
20260507023032 55 326 0.0 4.0 0.00 0.13 0.13 95 1006.1
20260507021530 56 318 0.0 4.0 0.02 0.13 0.13 95 1005.5
20260507020038 56 317 0.0 3.0 0.02 0.13 0.13 95 1005.4
20260507014525 58 340 0.0 3.0 0.02 0.13 0.13 96 1005.2
20260507013040 58 284 0.0 5.0 0.02 0.13 0.13 96 1004.8
20260507011524 59 276 2.0 8.0 0.00 0.11 0.11 95 1004.8
20260507010031 59 277 0.0 9.0 0.00 0.11 0.11 95 1004.8
20260507004523 58 220 1.0 6.0 0.00 0.11 0.11 96 1004.7
20260507003023 58 269 1.0 5.0 0.00 0.11 0.11 96 1004.3
20260507001528 58 235 0.0 6.0 0.00 0.11 0.11 96 1004.4
20260507000022 58 188 2.0 7.0 0.00 0.11 0.11 96 1004.3
20260506234528 58 238 2.0 6.0 0.00 0.11 0.11 96 1004.1
20260506233019 58 188 1.0 4.0 0.00 0.11 0.11 96 1004.1
20260506231517 58 129 1.0 6.0 0.00 0.11 0.11 96 1004.2
20260506230021 58 196 2.0 5.0 0.00 0.11 0.11 96 1004.2
20260506224517 58 218 1.0 4.0 0.00 0.11 0.11 96 1004.3
20260506223014 58 250 1.0 7.0 0.00 0.11 0.11 95 1004.4
20260506221513 59 202 3.0 7.0 0.00 0.11 0.11 95 1004.4
20260506220021 59 215 2.0 9.0 0.00 0.11 0.11 95 1004.5
20260506214512 59 204 2.0 7.0 0.01 0.11 0.11 95 1004.5
20260506213011 59 214 3.0 7.0 0.01 0.11 0.11 95 1004.4
20260506211516 60 161 3.0 9.0 0.02 0.11 0.11 95 1004.5
20260506210017 60 269 3.0 10.0 0.01 0.10 0.10 94 1004.5
20260506204509 60 141 2.0 12.0 0.03 0.10 0.10 94 1004.7
20260506203007 60 211 3.0 9.0 0.04 0.10 0.10 94 1004.7
20260506201507 60 151 1.0 10.0 0.03 0.09 0.09 94 1005.0
20260506200010 61 250 3.0 8.0 0.03 0.09 0.09 93 1005.0
20260506194503 61 190 4.0 8.0 0.01 0.07 0.07 92 1005.2
20260506193003 61 119 2.0 9.0 0.01 0.06 0.06 92 1005.4
20260506191502 61 217 2.0 8.0 0.01 0.06 0.06 91 1005.2
20260506190001 61 127 1.0 8.0 0.03 0.06 0.06 91 1005.0
20260506184617 61 213 2.0 7.0 0.05 0.06 0.06 90 1005.4
20260506183056 61 143 0.0 5.0 0.05 0.05 0.05 90 1005.8
20260506181554 61 261 1.0 4.0 0.05 0.05 0.05 89 1006.1
20260506180054 62 192 0.0 3.0 0.04 0.04 0.04 88 1006.1
20260506174551 63 232 0.0 3.0 0.01 0.01 0.01 83 1006.6
20260506173104 65 257 1.0 8.0 0.00 0.00 0.00 78 1006.5
20260506171554 66 203 3.0 8.0 0.00 0.00 0.00 72 1006.3
20260506170058 68 183 5.0 13.0 0.00 0.00 0.00 69 1006.3
20260506164608 68 189 4.0 17.0 0.00 0.00 0.00 67 1006.3
20260506163047 69 194 3.0 14.0 0.00 0.00 0.00 67 1006.4
20260506161548 69 243 1.0 14.0 0.00 0.00 0.00 67 1006.6
20260506160050 69 264 3.0 7.0 0.00 0.00 0.00 67 1006.7
20260506154550 68 248 1.0 5.0 0.00 0.00 0.00 72 1007.1
20260506153039 68 259 3.0 10.0 0.00 0.00 0.00 68 1007.2
20260506151539 68 286 2.0 13.0 0.00 0.00 0.00 70 1007.5
20260506150038 68 165 0.0 7.0 0.00 0.00 0.00 72 1007.6
20260506144537 67 262 2.0 7.0 0.00 0.00 0.00 72 1007.2
20260506143038 68 102 4.0 12.0 0.00 0.00 0.00 71 1007.5
20260506141539 67 136 4.0 9.0 0.00 0.00 0.00 73 1007.4
20260506140031 66 216 1.0 7.0 0.00 0.00 0.00 77 1007.3
20260506134527 65 111 2.0 5.0 0.00 0.00 0.00 77 1007.2
20260506133025 64 135 2.0 6.0 0.00 0.00 0.00 78 1007.7
20260506131523 64 184 2.0 4.0 0.00 0.00 0.00 79 1007.6
20260506130021 63 229 2.0 6.0 0.00 0.00 0.00 80 1007.8
20260506124619 62 273 1.0 6.0 0.00 0.00 0.00 81 1007.9
20260506123021 61 254 2.0 6.0 0.00 0.00 0.00 82 1007.9
20260506121518 60 168 0.0 3.0 0.00 0.00 0.00 83 1007.8
20260506120024 60 57 0.0 4.0 0.00 0.00 0.00 83 1008.1
20260506114517 59 205 0.0 3.0 0.00 0.00 0.00 85 1008.1
20260506113016 58 198 0.0 3.0 0.00 0.00 0.00 85 1008.2
20260506111515 58 197 1.0 4.0 0.00 0.00 0.00 85 1008.3
20260506110016 58 256 1.0 5.0 0.00 0.00 0.00 85 1008.2
20260506104513 57 211 0.0 3.0 0.00 0.00 0.00 86 1008.3
20260506103025 57 214 0.0 3.0 0.00 0.00 0.00 85 1008.3
20260506101512 57 200 0.0 5.0 0.00 0.00 0.00 84 1008.1
20260506100010 57 203 1.0 7.0 0.00 0.00 0.00 84 1008.2
20260506094520 57 178 2.0 7.0 0.00 0.00 0.00 83 1008.3
20260506093007 57 205 2.0 6.0 0.00 0.00 0.00 83 1008.1
20260506091506 57 144 1.0 3.0 0.00 0.00 0.00 82 1007.9
20260506090006 58 207 0.0 2.0 0.00 0.00 0.00 80 1008.0
20260506084505 58 225 0.0 3.0 0.00 0.00 0.00 80 1008.1
20260506083004 58 192 0.0 5.0 0.00 0.00 0.00 80 1008.2
20260506081505 57 138 0.0 3.0 0.00 0.00 0.00 81 1008.1
20260506073104 59 195 0.0 1.0 0.00 0.00 0.00 77 1008.1
20260506071555 59 215 0.0 1.0 0.00 0.00 0.00 75 1008.0
20260506070115 60 207 0.0 3.0 0.00 0.00 0.00 74 1007.9
20260506061651 60 213 0.0 1.0 0.00 0.00 0.00 74 1007.9
20260506044551 62 249 0.0 5.0 0.00 0.00 0.00 68 1008.3
20260506043039 62 245 0.0 3.0 0.00 0.00 0.00 68 1008.3
20260506041547 63 176 1.0 4.0 0.00 0.00 0.00 68 1008.1
20260506040041 63 109 0.0 2.0 0.00 0.00 0.00 67 1008.0
20260506034534 64 167 0.0 3.0 0.00 0.00 0.00 66 1008.1
20260506033032 65 155 1.0 4.0 0.00 0.00 0.00 64 1008.1
20260506031541 65 249 2.0 8.0 0.00 0.00 0.00 63 1008.0